View from above orbital plane
|
View from above satellite
|
Ground track
|
The orbit data is extracted from the following two-line orbital elements,
1 40021U 14033M 22141.79633651 .00007193 00000-0 70147-3 0 9990
2 40021 98.0102 91.5205 0013998 124.2470 236.0077 14.92689782430728
Epoch (UTC): | 21 May 2022 19:06:43 |
Eccentricity: | 0.0013998 |
inclination: | 98.0102° |
perigee height: | 580 km |
apogee height: | 599 km |
right ascension of ascending node: | 91.5205° |
argument of perigee: | 124.2470° |
revolutions per day: | 14.92689782 |
mean anomaly at epoch: | 236.0077° |
orbit number at epoch: | 43072 |
The dashed part of the orbit path shows where the satellite is in the earth's shadow,
|
|